[[{"header":{"parameterUnit":"m.s-1","parameterCategory":1,"la1":30.2992,"la2":30.254,"lo1":-89.0895,"lo2":-89.0443,"dy":0.0025,"dx":0.0025,"nx":19,"ny":19,"refTime":"2026-04-19T21:00:00:Z","depth":0,"parameterNumber":2,"parameterNumberName":"U-component_of_WINDS"},"data":[0,0,0,-2.233,-2.2333,-2.2464,-2.2465,-2.2633,-2.2634,0,0,0,0,0,0,0,0,0,0,0,-2.2291,-2.2292,-2.233,-2.2333,-2.2464,-2.2465,-2.2632,-2.2634,0,0,0,0,0,0,0,0,0,0,0,-2.2291,-2.2292,-2.2294,-2.2333,-2.2464,-2.2465,-2.2632,-2.2533,0,0,0,0,0,0,0,0,0,0,-2.2405,-2.237,-2.2292,-2.2294,-2.2334,-2.2464,-2.2465,-2.2528,-2.2539,-2.2573,0,-2.2604,0,-2.2622,-2.2645,-2.2646,0,0,0,-2.2332,-2.2361,-2.2396,-2.2294,-2.2335,-2.2464,-2.2405,-2.2534,-2.2547,-2.2588,-2.2607,-2.2613,-2.2625,-2.2646,-2.2647,-2.2848,-2.2849,0,0,-2.2325,-2.2315,-2.2387,-2.2404,-2.2384,-2.2401,-2.2409,-2.2542,-2.2561,-2.2607,-2.2617,-2.2627,-2.2648,-2.2649,-2.2847,-2.2848,0,0,0,-2.2305,-2.231,-2.2342,-2.2397,-2.2421,-2.2404,-2.2414,-2.2555,-2.2567,-2.2618,-2.2629,-2.2649,-2.2651,-2.2846,-2.2847,-2.2886,0,0,0,-2.23,-2.2298,-2.2339,-2.2334,-2.2418,-2.249,-2.2424,-2.2557,-2.2573,-2.2629,-2.2649,-2.2652,-2.2845,-2.2847,-2.2882,-2.2905,0,0,0,-2.2283,-2.2296,-2.2315,-2.2333,-2.2389,-2.2488,-2.2507,-2.2561,-2.2579,-2.2646,-2.2653,-2.2844,-2.2846,-2.2879,-2.2901,-2.2956,0,0,0,-2.226,-2.2346,-2.2315,-2.2415,-2.2388,-2.251,-2.2506,-2.2598,-2.2659,-2.2649,-2.2845,-2.2847,-2.2878,-2.2898,-2.2953,-2.3002,-2.3021,0,0,-2.2363,-2.2358,-2.2418,-2.2394,-2.252,-2.2491,-2.2622,-2.2688,-2.2703,-2.2799,-2.2804,-2.2883,-2.29,-2.2955,-2.313,-2.3145,0,0,0,-2.2447,-2.249,-2.2525,-2.2584,-2.2636,-2.2684,-2.2731,-2.2755,-2.2837,-2.275,-2.2918,-2.2929,-2.2961,-2.2985,-2.2998,-2.3027,-2.2858,-2.2857,-2.2857,-2.2577,-2.2593,-2.2693,-2.2725,-2.2782,-2.2829,-2.2877,-2.2918,-2.2917,-2.2956,-2.2985,-2.3089,-2.3116,-2.3126,-2.3156,-2.3011,-2.3011,-2.3011,-2.3011,-2.273,-2.2793,-2.279,-2.2886,-2.2902,-2.2982,-2.3032,-2.3028,-2.3106,-2.3068,-2.3098,-2.3056,-2.3142,-2.3169,-2.3014,-2.3014,-2.3013,-2.3013,-2.3013,-2.2818,-2.2851,-2.288,-2.2967,-2.3032,-2.3061,-2.3136,-2.3147,-2.3158,-2.3187,-2.322,-2.3219,-2.3221,-2.3202,-2.3202,-2.3203,-2.3203,-2.3203,-2.3203,-2.2899,-2.293,-2.2992,-2.3055,-2.3095,-2.3148,-2.3197,-2.3237,-2.3283,-2.3286,-2.3286,-2.3281,-2.3147,-2.3114,-2.3209,-2.3208,-2.3207,-2.3207,-2.3206,-2.3049,-2.3017,-2.3113,-2.3153,-2.3229,-2.3293,-2.3307,-2.3386,-2.342,-2.3457,-2.3446,-2.3344,-2.334,-2.333,-2.3303,-2.3441,-2.3441,-2.3441,-2.3441,-2.3125,-2.3124,-2.3225,-2.3288,-2.335,-2.3373,-2.3481,-2.352,-2.3555,-2.3577,-2.3559,-2.3523,-2.3512,-2.3515,-2.3501,-2.3475,-2.3655,-2.3655,-2.3655,-2.3219,-2.3225,-2.3315,-2.3349,-2.3409,-2.3461,-2.3563,-2.3636,-2.3669,-2.3664,-2.3595,-2.3586,-2.3529,-2.3509,-2.3503,-2.3481,-2.3435,0,0]},{"header":{"parameterUnit":"m.s-1","parameterCategory":1,"la1":30.2992,"la2":30.254,"lo1":-89.0895,"lo2":-89.0443,"dy":0.0025,"dx":0.0025,"nx":19,"ny":19,"refTime":"2026-04-19T21:00:00:Z","depth":0,"parameterNumber":3,"parameterNumberName":"V-component_of_WINDS"},"data":[0,0,0,-1.0901,-1.0904,-1.1077,-1.1077,-1.1272,-1.1273,0,0,0,0,0,0,0,0,0,0,0,-1.0834,-1.0835,-1.09,-1.0904,-1.1076,-1.1077,-1.1272,-1.1273,0,0,0,0,0,0,0,0,0,0,0,-1.0834,-1.0835,-1.0836,-1.0905,-1.1076,-1.1078,-1.1271,-1.115,0,0,0,0,0,0,0,0,0,0,-1.0987,-1.0911,-1.0835,-1.0836,-1.0906,-1.1076,-1.1078,-1.1145,-1.1158,-1.1183,0,-1.1201,0,-1.124,-1.1285,-1.1285,0,0,0,-1.0915,-1.09,-1.0961,-1.0836,-1.0907,-1.1076,-1.1002,-1.1152,-1.1167,-1.12,-1.1204,-1.1212,-1.1244,-1.1286,-1.1287,-1.1394,-1.1394,0,0,-1.0906,-1.0857,-1.095,-1.0969,-1.0942,-1.0996,-1.1007,-1.1162,-1.1163,-1.1205,-1.1217,-1.1247,-1.1287,-1.1288,-1.1394,-1.1394,0,0,0,-1.0871,-1.085,-1.0907,-1.0961,-1.0994,-1.1001,-1.1014,-1.1156,-1.1179,-1.122,-1.1249,-1.1288,-1.129,-1.1395,-1.1394,-1.1346,0,0,0,-1.0866,-1.083,-1.0902,-1.0874,-1.099,-1.1077,-1.1004,-1.1168,-1.1188,-1.1248,-1.1288,-1.1292,-1.1395,-1.1394,-1.1348,-1.1332,0,0,0,-1.0828,-1.0825,-1.0845,-1.0871,-1.0944,-1.1076,-1.1108,-1.1174,-1.1205,-1.1286,-1.1292,-1.1395,-1.1395,-1.1349,-1.1334,-1.1346,0,0,0,-1.0774,-1.08,-1.0843,-1.0884,-1.0942,-1.1045,-1.1108,-1.1187,-1.125,-1.1289,-1.1395,-1.1394,-1.135,-1.1336,-1.1347,-1.1348,-1.1343,0,0,-1.0779,-1.0799,-1.0826,-1.0871,-1.0953,-1.1022,-1.1099,-1.1203,-1.1255,-1.1344,-1.1348,-1.1347,-1.1334,-1.1346,-1.1335,-1.133,0,0,0,-1.0811,-1.083,-1.0863,-1.0921,-1.1001,-1.1069,-1.1166,-1.1205,-1.1284,-1.1291,-1.1356,-1.135,-1.1359,-1.1362,-1.1358,-1.1369,-1.1393,-1.1393,-1.1393,-1.0749,-1.0815,-1.0865,-1.095,-1.1006,-1.1106,-1.1157,-1.1226,-1.1275,-1.1289,-1.1317,-1.1302,-1.1303,-1.1301,-1.1311,-1.1322,-1.1322,-1.1322,-1.1322,-1.0764,-1.0801,-1.0866,-1.0938,-1.1006,-1.1067,-1.1164,-1.1197,-1.1263,-1.1286,-1.1298,-1.1318,-1.1294,-1.1307,-1.1319,-1.1319,-1.1319,-1.132,-1.132,-1.0731,-1.076,-1.0807,-1.0897,-1.096,-1.1045,-1.1106,-1.1166,-1.1223,-1.1234,-1.127,-1.1271,-1.1279,-1.1247,-1.1247,-1.1247,-1.1247,-1.1246,-1.1246,-1.0678,-1.0733,-1.0777,-1.0863,-1.0908,-1.0975,-1.1075,-1.1121,-1.1188,-1.1227,-1.1227,-1.1275,-1.128,-1.128,-1.1246,-1.1246,-1.1246,-1.1246,-1.1246,-1.067,-1.0681,-1.0749,-1.0794,-1.0901,-1.0959,-1.1034,-1.1122,-1.1169,-1.1197,-1.1242,-1.1236,-1.126,-1.1263,-1.1264,-1.1228,-1.1228,-1.1228,-1.1228,-1.0643,-1.066,-1.0744,-1.0812,-1.0885,-1.096,-1.1034,-1.1112,-1.1194,-1.1226,-1.124,-1.1246,-1.1246,-1.127,-1.1273,-1.1275,-1.1243,-1.1243,-1.1243,-1.0641,-1.0669,-1.0721,-1.0801,-1.0889,-1.0962,-1.1034,-1.1109,-1.1204,-1.1245,-1.1253,-1.1253,-1.1263,-1.1263,-1.1303,-1.1307,-1.1311,0,0]}]]